Weather History for Jefferson City, MO

Change the Weather History Date:

Sunday, January 13, 2013

  Actual Average Record
Temperature  
Mean Temperature 22 °F -  
Max Temperature 28 °F 38 °F 71 °F (1932)
Min Temperature 17 °F 16 °F -15 °F (1918)
Degree Days  
Heating Degree Days 42    
Moisture  
Dew Point 15 °F    
Average Humidity 72    
Maximum Humidity 81    
Minimum Humidity 62    
Precipitation  
Precipitation 0.00 in - - ()
Sea Level Pressure  
Sea Level Pressure 30.18 in    
Wind  
Wind Speed 10 mph (NW)    
Max Wind Speed 18 mph    
Max Gust Speed 21 mph    
Visibility 10 miles    
Events      
Averages and records for this station are not official NWS values.
T = Trace of Precipitation, MM = Missing Value Source: NWS Daily Summary

Daily Weather History Graph

Daily Weather History Graph

Search for Another Location

Airport:

Trip Planner

Search our weather history database for the weather conditions in past years. The results will help you decide how hot, cold, wet, or windy it might be!

Date:

Astronomy

Jan. 13, 2013 Rise Set
Actual Time 7:25 AM CST 5:09 PM CST
Civil Twilight 6:56 AM CST 5:38 PM CST
Nautical Twilight 6:23 AM CST 6:11 PM CST
Astronomical Twilight 5:51 AM CST 6:43 PM CST
Moon 8:26 AM CST (1/13) 7:46 PM CST (1/13)
Length of Visible Light 10h 42m
Length of Day
9h 44m
Waxing Crescent, 5% of the Moon is Illuminated
Jan 13
Waxing Crescent
Jan 18
First Quarter
Jan 26
Full
Feb 3
Last Quarter
Feb 10
New

Hourly Weather History & Observations

Time (CST) Temp. Windchill Dew Point Humidity Pressure Visibility Wind Dir Wind Speed Gust Speed Precip Events Conditions
12:53 AM 28.9 °F 21.1 °F 23.0 °F 78% 29.96 in 10.0 mi North 8.1 mph - N/A   Overcast
1:53 AM 28.0 °F 17.5 °F 23.0 °F 81% 30.01 in 10.0 mi NW 12.7 mph - N/A   Overcast
2:53 AM 26.1 °F 14.5 °F 21.0 °F 81% 30.03 in 10.0 mi NNW 13.8 mph 20.7 mph N/A   Overcast
3:24 AM 26.6 °F 16.2 °F 19.4 °F 74% 30.06 in 10.0 mi NNW 11.5 mph - N/A   Overcast
3:53 AM 26.1 °F 18.4 °F 19.0 °F 75% 30.07 in 10.0 mi NNW 6.9 mph - N/A   Overcast
4:53 AM 26.1 °F 17.6 °F 19.0 °F 75% 30.04 in 10.0 mi NNW 8.1 mph - N/A   Overcast
5:53 AM 25.0 °F 14.8 °F 17.1 °F 72% 30.07 in 10.0 mi NW 10.4 mph - N/A   Overcast
6:21 AM 24.8 °F 14.6 °F 17.6 °F 74% 30.12 in 10.0 mi NW 10.4 mph - N/A   Overcast
6:53 AM 24.1 °F 11.5 °F 16.0 °F 71% 30.10 in 10.0 mi NNW 15.0 mph 18.4 mph N/A   Overcast
7:32 AM 23.0 °F 15.8 °F 15.8 °F 74% 30.15 in 10.0 mi NNW 5.8 mph - N/A   Overcast
7:53 AM 23.0 °F 11.7 °F 15.1 °F 72% 30.14 in 10.0 mi NNW 11.5 mph - N/A   Overcast
8:53 AM 21.9 °F 11.0 °F 14.0 °F 72% 30.16 in 10.0 mi NW 10.4 mph - N/A   Overcast
9:53 AM 21.9 °F 9.8 °F 12.9 °F 68% 30.18 in 10.0 mi WNW 12.7 mph - N/A   Overcast
10:53 AM 21.9 °F 11.0 °F 12.0 °F 66% 30.22 in 10.0 mi WNW 10.4 mph - N/A   Overcast
11:53 AM 21.9 °F 9.2 °F 14.0 °F 72% 30.18 in 10.0 mi WNW 13.8 mph - N/A   Overcast
12:53 PM 21.9 °F 9.8 °F 12.9 °F 68% 30.17 in 10.0 mi NW 12.7 mph - N/A   Mostly Cloudy
1:11 PM 21.2 °F 6.4 °F 12.2 °F 68% 30.18 in 10.0 mi WNW 18.4 mph - N/A   Scattered Clouds
1:53 PM 23.0 °F 9.6 °F 14.0 °F 68% 30.17 in 10.0 mi WNW 16.1 mph - N/A   Partly Cloudy
2:53 PM 24.1 °F 10.6 °F 14.0 °F 65% 30.22 in 10.0 mi WNW 17.3 mph - N/A   Scattered Clouds
3:53 PM 24.1 °F 13.1 °F 12.9 °F 62% 30.25 in 10.0 mi WNW 11.5 mph 19.6 mph N/A   Clear
4:53 PM 24.1 °F 15.2 °F 12.9 °F 62% 30.26 in 10.0 mi WNW 8.1 mph - N/A   Clear
5:53 PM 21.9 °F 14.5 °F 12.9 °F 68% 30.28 in 10.0 mi WNW 5.8 mph - N/A   Clear
6:53 PM 21.0 °F - 12.9 °F 71% 30.30 in 10.0 mi Calm Calm - N/A   Clear
7:53 PM 21.0 °F 14.6 °F 12.9 °F 71% 30.31 in 10.0 mi WNW 4.6 mph - N/A   Clear
8:53 PM 19.9 °F - 12.9 °F 74% 30.30 in 10.0 mi Calm Calm - N/A   Clear
9:53 PM 19.0 °F - 12.9 °F 77% 30.32 in 10.0 mi Calm Calm - N/A   Clear
10:53 PM 17.1 °F - 12.0 °F 81% 30.36 in 9.0 mi Calm Calm - N/A   Clear
11:53 PM 18.0 °F 12.7 °F 12.9 °F 81% 30.39 in 8.0 mi East 3.5 mph - N/A   Clear